Time,TemperatureF,DewpointF,PressureIn,WindDirection,WindDirectionDegrees,WindSpeedMPH,WindSpeedGustMPH,Humidity,HourlyPrecipIn,Conditions,Clouds,dailyrainin,SolarRadiationWatts/m^2,SoftwareType,DateUTC
2013-05-09 00:03:00,62.2,61.0,29.71,SSE,164,0.0,3.0,94,0.00,,,0.02,0,weatherlink.com 1.10,2013-05-09 04:03:00,
2013-05-09 00:18:00,62.1,60.0,29.70,SSE,161,0.0,2.0,94,0.00,,,0.02,0,weatherlink.com 1.10,2013-05-09 04:18:00,
2013-05-09 00:33:00,61.9,60.0,29.70,South,188,0.0,2.0,94,0.00,,,0.02,0,weatherlink.com 1.10,2013-05-09 04:33:00,
2013-05-09 00:48:00,61.8,60.0,29.70,SE,130,0.0,4.0,94,0.00,,,0.02,0,weatherlink.com 1.10,2013-05-09 04:48:00,
2013-05-09 01:03:00,61.8,60.0,29.69,SE,130,0.0,0.0,95,0.00,,,0.02,0,weatherlink.com 1.10,2013-05-09 05:03:00,
2013-05-09 01:18:00,61.7,60.0,29.68,SE,130,0.0,0.0,95,0.00,,,0.02,0,weatherlink.com 1.10,2013-05-09 05:18:00,
2013-05-09 01:33:00,61.6,60.0,29.68,SE,130,0.0,0.0,95,0.00,,,0.02,0,weatherlink.com 1.10,2013-05-09 05:33:00,
2013-05-09 01:48:00,61.6,60.0,29.67,SE,130,0.0,0.0,95,0.00,,,0.02,0,weatherlink.com 1.10,2013-05-09 05:48:00,
2013-05-09 02:03:00,61.5,60.0,29.67,SE,130,0.0,0.0,95,0.00,,,0.02,0,weatherlink.com 1.10,2013-05-09 06:03:00,
2013-05-09 02:18:00,61.3,60.0,29.67,SE,130,0.0,0.0,95,0.00,,,0.02,0,weatherlink.com 1.10,2013-05-09 06:18:00,
2013-05-09 02:33:00,61.1,60.0,29.66,SE,130,0.0,0.0,96,0.00,,,0.02,0,weatherlink.com 1.10,2013-05-09 06:33:00,
2013-05-09 02:48:00,60.9,60.0,29.66,SE,130,0.0,1.0,95,0.00,,,0.00,0,weatherlink.com 1.10,2013-05-09 06:48:00,
2013-05-09 03:04:00,60.8,59.0,29.66,SE,130,0.0,0.0,95,0.00,,,0.00,0,weatherlink.com 1.10,2013-05-09 07:04:00,
2013-05-09 03:18:00,60.7,60.0,29.66,SE,130,0.0,0.0,96,0.00,,,0.00,0,weatherlink.com 1.10,2013-05-09 07:18:00,
2013-05-09 03:33:00,60.7,60.0,29.66,SE,130,0.0,0.0,96,0.00,,,0.00,0,weatherlink.com 1.10,2013-05-09 07:33:00,
2013-05-09 03:48:00,60.6,60.0,29.65,SE,130,0.0,0.0,96,0.00,,,0.00,0,weatherlink.com 1.10,2013-05-09 07:48:00,
2013-05-09 04:03:00,60.5,59.0,29.65,SE,130,0.0,0.0,96,0.00,,,0.00,0,weatherlink.com 1.10,2013-05-09 08:03:00,
2013-05-09 04:18:00,60.4,59.0,29.64,SE,130,0.0,0.0,96,0.00,,,0.00,0,weatherlink.com 1.10,2013-05-09 08:18:00,
2013-05-09 04:33:00,60.3,59.0,29.64,SE,130,0.0,0.0,96,0.00,,,0.00,0,weatherlink.com 1.10,2013-05-09 08:33:00,
2013-05-09 04:48:00,59.9,59.0,29.64,SE,130,1.0,2.0,96,0.00,,,0.00,0,weatherlink.com 1.10,2013-05-09 08:48:00,
2013-05-09 05:03:00,59.6,59.0,29.64,SE,130,0.0,1.0,96,0.00,,,0.00,0,weatherlink.com 1.10,2013-05-09 09:03:00,
2013-05-09 05:18:00,59.1,58.0,29.64,SE,130,1.0,1.0,96,0.00,,,0.00,0,weatherlink.com 1.10,2013-05-09 09:18:00,
2013-05-09 05:33:00,58.8,58.0,29.65,SE,130,0.0,0.0,96,0.00,,,0.00,0,weatherlink.com 1.10,2013-05-09 09:33:00,
2013-05-09 05:48:00,58.8,58.0,29.64,SE,130,0.0,0.0,96,0.00,,,0.00,9,weatherlink.com 1.10,2013-05-09 09:48:00,
2013-05-09 06:03:00,58.7,58.0,29.64,SE,130,0.0,0.0,97,0.00,,,0.00,28,weatherlink.com 1.10,2013-05-09 10:03:00,
2013-05-09 06:18:00,58.6,58.0,29.64,SE,130,0.0,1.0,96,0.00,,,0.00,63,weatherlink.com 1.10,2013-05-09 10:18:00,
2013-05-09 06:33:00,59.1,58.0,29.64,NNW,331,0.0,2.0,97,0.00,,,0.00,74,weatherlink.com 1.10,2013-05-09 10:33:00,
2013-05-09 06:48:00,59.4,59.0,29.65,NNW,331,0.0,1.0,97,0.00,,,0.00,116,weatherlink.com 1.10,2013-05-09 10:48:00,
2013-05-09 07:03:00,59.5,59.0,29.65,NNW,331,0.0,2.0,97,0.00,,,0.00,83,weatherlink.com 1.10,2013-05-09 11:03:00,
2013-05-09 07:18:00,59.5,59.0,29.66,NNW,331,1.0,2.0,97,0.00,,,0.00,69,weatherlink.com 1.10,2013-05-09 11:18:00,
2013-05-09 07:33:00,59.4,59.0,29.66,NNW,331,0.0,2.0,97,0.00,,,0.00,72,weatherlink.com 1.10,2013-05-09 11:33:00,
2013-05-09 07:48:00,59.5,59.0,29.66,NNW,331,1.0,3.0,97,0.00,,,0.00,100,weatherlink.com 1.10,2013-05-09 11:48:00,
2013-05-09 08:18:00,60.0,59.0,29.66,NNW,331,1.0,3.0,97,0.00,,,0.00,148,weatherlink.com 1.10,2013-05-09 12:18:00,
2013-05-09 08:33:00,60.3,59.0,29.66,NNW,331,1.0,3.0,96,0.00,,,0.00,107,weatherlink.com 1.10,2013-05-09 12:33:00,
2013-05-09 08:48:00,60.6,59.0,29.65,NNW,331,0.0,2.0,95,0.00,,,0.00,193,weatherlink.com 1.10,2013-05-09 12:48:00,
2013-05-09 09:03:00,61.3,60.0,29.65,NNW,331,0.0,3.0,94,0.00,,,0.00,295,weatherlink.com 1.10,2013-05-09 13:03:00,
2013-05-09 09:18:00,62.3,61.0,29.65,NNW,331,1.0,2.0,94,0.00,,,0.00,427,weatherlink.com 1.10,2013-05-09 13:18:00,
2013-05-09 09:33:00,63.6,61.0,29.65,ESE,113,0.0,3.0,90,0.00,,,0.00,172,weatherlink.com 1.10,2013-05-09 13:33:00,
2013-05-09 09:49:00,63.4,60.0,29.64,NNE,31,2.0,4.0,88,0.00,,,0.00,146,weatherlink.com 1.10,2013-05-09 13:49:00,
2013-05-09 10:04:00,63.3,60.0,29.64,NNE,31,2.0,3.0,89,0.00,,,0.00,132,weatherlink.com 1.10,2013-05-09 14:04:00,
2013-05-09 10:19:00,63.4,60.0,29.64,NNE,31,4.0,4.0,89,0.00,,,0.00,192,weatherlink.com 1.10,2013-05-09 14:19:00,
2013-05-09 10:34:00,63.2,60.0,29.64,NNE,17,3.0,5.0,89,0.00,,,0.00,318,weatherlink.com 1.10,2013-05-09 14:34:00,
2013-05-09 10:49:00,63.6,60.0,29.64,North,9,0.0,4.0,88,0.00,,,0.00,234,weatherlink.com 1.10,2013-05-09 14:49:00,
2013-05-09 11:04:00,63.9,60.0,29.64,North,9,0.0,2.0,87,0.00,,,0.00,102,weatherlink.com 1.10,2013-05-09 15:04:00,
2013-05-09 11:19:00,63.9,60.0,29.64,North,9,0.0,0.0,88,0.01,,,0.01,156,weatherlink.com 1.10,2013-05-09 15:19:00,
2013-05-09 11:34:00,64.1,61.0,29.64,North,9,0.0,1.0,90,0.01,,,0.01,178,weatherlink.com 1.10,2013-05-09 15:34:00,
2013-05-09 11:49:00,64.1,61.0,29.64,North,9,0.0,0.0,90,0.01,,,0.01,107,weatherlink.com 1.10,2013-05-09 15:49:00,
2013-05-09 12:04:00,64.0,61.0,29.64,North,11,0.0,2.0,90,0.01,,,0.01,251,weatherlink.com 1.10,2013-05-09 16:04:00,
2013-05-09 12:19:00,63.6,61.0,29.63,North,11,1.0,1.0,90,0.00,,,0.01,91,weatherlink.com 1.10,2013-05-09 16:19:00,
2013-05-09 12:34:00,63.0,61.0,29.62,NNE,14,2.0,4.0,92,0.00,,,0.01,56,weatherlink.com 1.10,2013-05-09 16:34:00,
2013-05-09 12:49:00,62.6,61.0,29.62,NNE,16,0.0,1.0,93,0.00,,,0.01,63,weatherlink.com 1.10,2013-05-09 16:49:00,
2013-05-09 13:04:00,62.5,61.0,29.62,NNE,16,1.0,2.0,93,0.00,,,0.01,42,weatherlink.com 1.10,2013-05-09 17:04:00,
2013-05-09 13:19:00,62.3,61.0,29.62,NNE,16,1.0,2.0,94,0.01,,,0.02,156,weatherlink.com 1.10,2013-05-09 17:19:00,
2013-05-09 13:34:00,63.1,61.0,29.61,South,169,2.0,4.0,94,0.01,,,0.02,870,weatherlink.com 1.10,2013-05-09 17:34:00,
2013-05-09 13:49:00,64.8,61.0,29.60,SE,131,2.0,3.0,88,0.01,,,0.02,450,weatherlink.com 1.10,2013-05-09 17:49:00,
2013-05-09 14:04:00,66.7,62.0,29.60,East,99,5.0,5.0,86,0.02,,,0.04,320,weatherlink.com 1.10,2013-05-09 18:04:00,
2013-05-09 14:19:00,66.6,61.0,29.60,SSE,147,1.0,4.0,81,0.03,,,0.05,214,weatherlink.com 1.10,2013-05-09 18:19:00,
2013-05-09 14:34:00,67.2,61.0,29.59,SE,127,0.0,3.0,81,0.05,,,0.07,229,weatherlink.com 1.10,2013-05-09 18:34:00,
2013-05-09 14:49:00,68.5,63.0,29.58,SE,130,0.0,5.0,81,0.06,,,0.08,253,weatherlink.com 1.10,2013-05-09 18:49:00,
2013-05-09 15:04:00,68.1,61.0,29.58,NE,34,1.0,3.0,78,0.05,,,0.09,315,weatherlink.com 1.10,2013-05-09 19:04:00,
2013-05-09 15:19:00,67.8,60.0,29.58,SE,133,1.0,4.0,77,0.05,,,0.10,230,weatherlink.com 1.10,2013-05-09 19:19:00,
2013-05-09 15:34:00,67.6,59.0,29.56,East,90,1.0,3.0,75,0.04,,,0.11,638,weatherlink.com 1.10,2013-05-09 19:34:00,
2013-05-09 15:49:00,68.6,61.0,29.56,SE,130,1.0,3.0,76,0.04,,,0.12,179,weatherlink.com 1.10,2013-05-09 19:49:00,
2013-05-09 16:04:00,68.1,61.0,29.57,SSE,154,0.0,5.0,77,0.03,,,0.12,30,weatherlink.com 1.10,2013-05-09 20:04:00,
2013-05-09 16:19:00,67.1,62.0,29.56,SSE,159,2.0,2.0,83,0.03,,,0.13,39,weatherlink.com 1.10,2013-05-09 20:19:00,
2013-05-09 16:34:00,65.7,62.0,29.56,SW,219,0.0,1.0,86,0.02,,,0.13,28,weatherlink.com 1.10,2013-05-09 20:34:00,
2013-05-09 16:49:00,64.4,61.0,29.56,SW,219,0.0,1.0,89,0.02,,,0.14,33,weatherlink.com 1.10,2013-05-09 20:49:00,
2013-05-09 17:04:00,63.1,61.0,29.57,North,5,0.0,5.0,91,0.01,,,0.14,21,weatherlink.com 1.10,2013-05-09 21:04:00,
2013-05-09 17:19:00,62.1,60.0,29.56,North,5,2.0,3.0,92,0.01,,,0.14,25,weatherlink.com 1.10,2013-05-09 21:19:00,
2013-05-09 17:34:00,61.5,60.0,29.56,ENE,57,0.0,3.0,94,0.01,,,0.14,58,weatherlink.com 1.10,2013-05-09 21:34:00,
2013-05-09 17:49:00,61.3,60.0,29.56,NE,54,0.0,3.0,94,0.00,,,0.14,28,weatherlink.com 1.10,2013-05-09 21:49:00,
2013-05-09 18:04:00,61.2,60.0,29.55,NNE,27,0.0,3.0,95,0.00,,,0.14,28,weatherlink.com 1.10,2013-05-09 22:04:00,
2013-05-09 18:19:00,61.0,60.0,29.55,NNE,27,0.0,1.0,95,0.01,,,0.15,46,weatherlink.com 1.10,2013-05-09 22:19:00,
2013-05-09 18:34:00,60.9,60.0,29.55,SSW,207,0.0,3.0,95,0.01,,,0.15,63,weatherlink.com 1.10,2013-05-09 22:34:00,
2013-05-09 18:49:00,61.0,60.0,29.55,NE,37,0.0,4.0,95,0.01,,,0.15,23,weatherlink.com 1.10,2013-05-09 22:49:00,
2013-05-09 19:04:00,60.8,59.0,29.55,ESE,118,3.0,5.0,95,0.01,,,0.15,53,weatherlink.com 1.10,2013-05-09 23:04:00,
2013-05-09 19:19:00,60.2,59.0,29.55,NE,51,1.0,7.0,94,0.00,,,0.15,30,weatherlink.com 1.10,2013-05-09 23:19:00,
2013-05-09 19:34:00,60.0,58.0,29.56,NNE,31,0.0,2.0,94,0.00,,,0.15,12,weatherlink.com 1.10,2013-05-09 23:34:00,
2013-05-09 19:49:00,59.8,58.0,29.56,NNE,31,0.0,0.0,94,0.00,,,0.15,0,weatherlink.com 1.10,2013-05-09 23:49:00,
2013-05-09 20:04:00,59.4,58.0,29.56,NNE,31,0.0,0.0,94,0.01,,,0.16,0,weatherlink.com 1.10,2013-05-10 00:04:00,
2013-05-09 20:19:00,58.9,57.0,29.56,NNE,31,0.0,0.0,94,0.01,,,0.16,0,weatherlink.com 1.10,2013-05-10 00:19:00,
2013-05-09 20:34:00,58.6,57.0,29.56,NNE,31,0.0,1.0,94,0.01,,,0.16,0,weatherlink.com 1.10,2013-05-10 00:34:00,
2013-05-09 20:49:00,58.3,57.0,29.57,NNE,31,0.0,0.0,95,0.01,,,0.16,0,weatherlink.com 1.10,2013-05-10 00:49:00,
2013-05-09 21:04:00,58.0,57.0,29.58,NNE,31,0.0,0.0,95,0.00,,,0.16,0,weatherlink.com 1.10,2013-05-10 01:04:00,
2013-05-09 21:19:00,57.9,57.0,29.58,NNE,31,0.0,0.0,96,0.00,,,0.16,0,weatherlink.com 1.10,2013-05-10 01:19:00,
2013-05-09 21:34:00,58.1,57.0,29.58,NNE,31,0.0,2.0,96,0.00,,,0.16,0,weatherlink.com 1.10,2013-05-10 01:34:00,
2013-05-09 21:49:00,58.2,57.0,29.58,NNE,31,0.0,0.0,97,0.00,,,0.16,0,weatherlink.com 1.10,2013-05-10 01:49:00,
2013-05-09 22:04:00,58.3,58.0,29.58,NNE,31,0.0,1.0,97,0.00,,,0.16,0,weatherlink.com 1.10,2013-05-10 02:04:00,
2013-05-09 22:19:00,58.3,58.0,29.58,NNE,31,0.0,0.0,97,0.00,,,0.16,0,weatherlink.com 1.10,2013-05-10 02:19:00,
2013-05-09 22:34:00,58.2,57.0,29.58,NNE,31,1.0,3.0,97,0.00,,,0.16,0,weatherlink.com 1.10,2013-05-10 02:34:00,
2013-05-09 22:49:00,58.2,57.0,29.57,NNE,32,0.0,2.0,97,0.00,,,0.16,0,weatherlink.com 1.10,2013-05-10 02:49:00,
2013-05-09 23:04:00,58.2,57.0,29.57,NNE,31,0.0,0.0,97,0.01,,,0.17,0,weatherlink.com 1.10,2013-05-10 03:04:00,
2013-05-09 23:19:00,58.1,57.0,29.57,NNE,31,0.0,0.0,97,0.01,,,0.17,0,weatherlink.com 1.10,2013-05-10 03:19:00,
2013-05-09 23:34:00,58.1,57.0,29.57,NNE,31,0.0,0.0,97,0.01,,,0.17,0,weatherlink.com 1.10,2013-05-10 03:34:00,
2013-05-09 23:49:00,57.9,57.0,29.56,NNE,31,0.0,0.0,97,0.01,,,0.17,0,weatherlink.com 1.10,2013-05-10 03:49:00,